www.pogodaiklimat.ru

Погода и климат >> Архив погоды >> Австралия >> St Lawrence


ПОГОДА в St Lawrence

  • Прогноз погоды в St Lawrence
  • Монитор погоды в St Lawrence
  • Климат города

АРХИВ ПОГОДЫ в St Lawrence

Время (UTC), дата Ветер
(напр.,м/с)
 
Видим.   Явления Облачность Т
(С)
Тd
(С)
f
(%)
Тe
(С)
Тes
(С)
Комфортность P
(гПа)
Po
(гПа)
Тmin
(С)
Tmax
(С)
R
(мм)
R24
(мм)
S
(см)
02 6.11 СВ 7 н/о н/о +29.4 +20.8 60 +37 +37 очень
душно
1013.6 1012.5 +19.2
05 6.11 СВ 6 н/о н/о +28.7 +19.6 58 +35 +35 очень
душно
1011.2 1010.1
08 6.11 С 5 н/о н/о +26.4 +18.5 62 +31 +31 душно 1011.3 1010.2
11 6.11 С 2 н/о н/о +23.2 +17.9 72 +29 +29 душно 1013.0 1011.9
14 6.11 С 4 н/о н/о +24.6 +20.1 76 +30 +30 очень
душно
1012.5 1011.4 +30.2
17 6.11 С 4 н/о н/о +24.4 +20.1 77 +30 +30 очень
душно
1010.8 1009.7
20 6.11 З 1 н/о н/о +21.8 +19.0 84 +27 +27 душно 1011.6 1010.5
23 6.11 С 7 н/о н/о +28.5 +18.0 53 +33 +33 очень
душно
1012.6 1011.5
02 7.11 СВ 7 н/о н/о +29.2 +20.4 59 +36 +36 очень
душно
1011.1 1010.0 +20.3
05 7.11 СВ 7 н/о н/о +29.1 +20.0 58 +35 +35 очень
душно
1008.2 1007.1
08 7.11 С 7 н/о н/о +26.3 +19.9 68 +32 +32 очень
душно
1008.5 1007.4
11 7.11 С 4 н/о н/о +25.2 +19.8 72 +31 +31 очень
душно
1010.4 1009.3
14 7.11 С 3 н/о н/о +25.4 +20.2 73 +31 +31 очень
душно
1009.9 1008.8 +30.6
17 7.11 штиль 0 н/о н/о +23.6 +19.7 79 +29 +29 душно 1010.0 1008.9
20 7.11 штиль 0 н/о н/о +22.5 +19.7 84 +29 +29 очень
душно
1011.9 1010.8
23 7.11 Ю 6 н/о н/о +28.1 +18.8 57 +33 +33 очень
душно
1013.1 1012.0
02 8.11 СВ 6 н/о н/о +30.6 +17.3 45 +35 +35 очень
душно
1010.4 1009.3 +22.0
05 8.11 СВ 6 н/о н/о +30.0 +19.4 53 +36 +36 очень
душно
1009.4 1008.3
08 8.11 СВ 4 н/о н/о +27.7 +20.0 63 +34 +34 очень
душно
1011.3 1010.2
11 8.11 ЮВ 5 н/о н/о +26.3 +11.2 39 +27 +27 жарко 1014.1 1013.0
14 8.11 Ю 5 н/о н/о +24.2 +6.9 33 +24 +24 комфорт 1014.9 1013.8 +32.9
17 8.11 Ю 3 н/о н/о +23.0 +5.0 31 +23 +23 комфорт 1014.3 1013.2
20 8.11 Ю 2 н/о н/о +20.8 +6.4 39 +22 +22 комфорт 1015.7 1014.6
23 8.11 В 3 н/о н/о +26.3 +11.6 40 +28 +28 жарко 1016.6 1015.5
02 9.11 СВ 4 н/о н/о +29.6 +16.1 44 +33 +33 душно 1014.4 1013.3 +20.2
05 9.11 СВ 6 н/о н/о +28.8 +17.0 49 +33 +33 очень
душно
1012.5 1011.4
08 9.11 СВ 6 н/о н/о +25.8 +16.6 57 +29 +29 душно 1013.4 1012.3
11 9.11 В 4 н/о н/о +23.5 +17.5 69 +27 +27 душно 1015.1 1014.0
14 9.11 Ю 2 н/о н/о +22.4 +16.7 70 +27 +27 душно 1015.0 1013.9 +30.7
17 9.11 Ю 3 н/о н/о +19.9 +16.2 79 +23 +23 комфорт 1013.1 1012.0
20 9.11 Ю 2 н/о н/о +20.8 +16.6 77 +25 +25 комфорт 1014.3 1013.2
23 9.11 В 4 н/о н/о +26.9 +17.1 55 +31 +31 душно 1015.4 1014.3
02 10.11 С 7 н/о н/о +29.4 +15.1 42 +32 +32 душно 1013.2 1012.1 +19.5
05 10.11 СВ 7 н/о н/о +28.1 +17.6 53 +32 +32 душно 1011.4 1010.3
08 10.11 СВ 5 н/о н/о +25.6 +16.5 57 +29 +29 душно 1012.3 1011.2
11 10.11 В 4 н/о н/о +24.4 +15.9 59 +28 +28 душно 1014.1 1013.0
14 10.11 В 2 н/о н/о +23.6 +16.9 66 +27 +27 жарко 1015.1 1014.0 +30.7
17 10.11 Ю 2 н/о н/о +20.8 +15.6 72 +25 +25 комфорт 1013.6 1012.5
20 10.11 Ю 3 н/о н/о +20.9 +15.9 73 +25 +25 комфорт 1015.4 1014.3
23 10.11 ЮВ 4 н/о н/о +27.6 +13.2 41 +29 +29 жарко 1016.5 1015.4
02 11.11 СВ 8 н/о н/о +29.6 +12.5 35 +31 +31 жарко 1014.2 1013.1 +20.0
05 11.11 СВ 6 н/о н/о +28.5 +14.3 42 +31 +31 душно 1012.8 1011.7
08 11.11 С 6 н/о н/о +26.2 +18.1 61 +31 +31 очень
душно
1014.3 1013.2
11 11.11 В 3 н/о н/о +23.8 +17.8 69 +28 +28 душно 1017.4 1016.3
14 11.11 ЮВ 2 н/о н/о +21.7 +17.1 75 +26 +26 душно 1017.1 1016.0 +30.8
17 11.11 Ю 2 н/о н/о +20.1 +16.3 79 +23 +23 комфорт 1015.7 1014.6
20 11.11 Ю 3 н/о н/о +20.2 +16.4 79 +23 +23 комфорт 1016.9 1015.8
23 11.11 В 4 н/о н/о +27.2 +15.9 50 +30 +30 душно 1018.1 1017.0
02 12.11 СВ 7 н/о н/о +30.0 +11.5 32 +31 +31 жарко 1016.0 1014.9 +19.5
05 12.11 СВ 7 н/о н/о +29.1 +16.3 46 +32 +32 душно 1013.8 1012.7
08 12.11 С 6 н/о н/о +25.4 +17.8 63 +30 +30 душно 1014.9 1013.8
11 12.11 В 3 н/о н/о +23.4 +15.2 60 +28 +28 душно 1016.8 1015.7
14 12.11 штиль 0 н/о н/о +20.7 +15.7 73 +24 +24 комфорт 1016.5 1015.4 +31.5
17 12.11 Ю 3 н/о н/о +18.8 +14.7 77 +20 +20 1015.1 1014.0
20 12.11 Ю 2 н/о н/о +18.6 +15.3 81 +20 +20 1016.5 1015.4
23 12.11 ЮВ 4 н/о н/о +26.2 +16.2 54 +30 +30 душно 1016.8 1015.7

 

Местоположение метеостанции St Lawrence (Квинсленд, Австралия): широта -22.35 долгота 149.52 высота над уровнем моря 10 м.

В архиве по умолчанию представлена погода в St Lawrence за последнюю неделю. Архивные данные за месяц целиком и за предыдущие месяцы, начиная с января 2011 года, Вы можете получить, выбрав интересующий диапазон дат из раскрывающегося списка и нажав кнопку "Ввод!".


*Определитесь, кто Вы:
робот инопланетянин человек

Внимание! Время в таблицах - всемирное. Для получения местного времени необходимо прибавить поправку, которая в St Lawrence равна 10 ч.

Смотрите также архив погоды в соседних городах и на ближайших метеорологических станциях:

Погода в Williamson (Квинсленд, Австралия) (69 км)
Погода в Middle Percy Island (Квинсленд, Австралия) (108 км)
Погода в Samuel Hill Aero (Квинсленд, Австралия) (124 км)
Погода в Mackay Airport (Квинсленд, Австралия) (136 км)
Погода в Mackay Mo (Квинсленд, Австралия) (142 км)
Погода в Rockhampton Airport (Квинсленд, Австралия) (151 км)
Погода в Yeppoon The Esplanad (Квинсленд, Австралия) (153 км)
Погода в Emerald Airport (Квинсленд, Австралия) (192 км)
Погода в Clermont Airport (Квинсленд, Австралия) (201 км)
Погода в Creal Reef (Квинсленд, Австралия) (221 км)

Пояснения к столбцам:

Ветер - указаны скорость ветра в м/с - средняя за 10 мин, порывы в срок и между сроками (в фигурных скобках) и направление, откуда дует ветер: С - северный, СВ - северо-восточный, В - восточный, ЮВ - юго-восточный, Ю - южный, ЮЗ - юго-западный, З - западный, СЗ - северо-западный.
Видимость - горизонтальная дальность видимости в метрах или километрах. При видимости от 1 до 10 км при отсутствии осадков обычно наблюдается дымка, при ухудшении видимости до 1 км и менее - туман. В сухую погоду видимость может ухудшаться дымом, пылью или мглою.
Явления - указаны атмосферные явления, наблюдавшиеся в срок или в последний час перед сроком; фигурными скобками обозначены явления, наблюдавшиеся между сроками (за 1-3 часа до срока); квадратными скобками обозначены град или гололедные отложения с указанием их диаметра в мм.
Облачность - указаны через наклонную черту общая и нижняя облачность в баллах и высота нижней границы облаков в метрах; квадратными скобками обозначены формы облаков: Ci - перистые, Cs - перисто-слоистые, Cc - перисто-кучевые, Ac - высококучевые, As - высокослоистые, Sc - слоисто-кучевые, Ns - слоисто-дождевые, Cu - кучевые, Cb - кучево-дождевые. Подробнее классификацию облаков см. в Атласе облаков (PDF).
T - Температура воздуха - температура, измеренная на высоте 2 м над землей.
Td - Температура точки росы - температура, при понижении до которой содержащийся в воздухе водяной пар достигнет насыщения.
f - Относительная влажность воздуха - влажноcть воздуха, измеренная на высоте 2 м над землей.
Te - Эффективная температура - температура, которую ощущает одетый по сезону человек в тени. Характеристика душности погоды. При расчете учитывается влияние влажности воздуха и скорости ветра на теплоощущения человека.
Tes - Эффективная температура на солнце - температура, которую ощущает человек, с поправкой на солнечный нагрев. Характеристика знойности погоды. Зависит от высоты солнца над горизонтом, облачности и скорости ветра. Ночью, в пасмурную погоду, а также при ветре 12 м/с и более поправка равна нулю.
P - Атмосферное давление - приведенное к уровню моря атмосферное давление.
Po - Атмосферное давление - измеренное на уровне метеостанции атмосферное давление.
Tmin - Минимальная температура - минимум температуры воздуха на высоте 2 м над землей.
Tmax - Максимальная температура - максимум температуры воздуха на высоте 2 м над землей.
R - Количество осадков - Количество выпавших осадков за период времени, мм. При наведении курсора мыши на число - период времени, за который выпало указанное количество осадков.
R24 - Количество осадков - Количество выпавших осадков за 24 часа, мм.
S - Снежный покров - Высота снежного покрова, см. При наведении курсора мыши на число - состояние снежного покрова и степень покрытия местности в баллах.